www.pogodaiklimat.ru

Погода и климат >> Архив погоды >> Черногория >> Подгорица


АРХИВ ПОГОДЫ в Подгорице

Время (UTC), дата Ветер
(напр.,м/с)
 
Видим.   Явления Облачность Т
(С)
Тd
(С)
f
(%)
Тe
(С)
Тes
(С)
Комфортность P
(гПа)
Po
(гПа)
Тmin
(С)
Tmax
(С)
R
(мм)
R24
(мм)
S
(см)
12 12.02 С 9 10 км 5/1 1020 м
[Cu hum Ac trans]
+9.2 -7.2 31 +5 +6 прохладно 1018.1 1013.9
15 12.02 С 10 10 км 3/3 1200 м
[Cu hum]
+8.1 -8.0 31 +4 +4 по сезону 1019.7 1015.5
18 12.02 СВ 5 10 км ясно +6.2 -9.2 32 +3 +3 по сезону 1022.9 1018.7 +10.0
21 12.02 С 8 20 км ясно +5.5 -7.6 38 +1 +1 по сезону 1024.9 1020.7
00 13.02 С 5 20 км ясно +4.7 -9.3 35 +1 +1 по сезону 1026.1 1021.8
03 13.02 С 7 20 км ясно +4.3 -9.9 35 -1 -1 по сезону 1026.1 1021.8
06 13.02 СВ 10 20 км 1/1 1500 м
[Cu hum]
+4.0 -8.3 40 -2 -2 прохладно 1027.4 1023.2 +4.0
09 13.02 С 10 20 км 1/1 1200 м
[Cu hum]
+6.7 -9.3 31 +2 +2 прохладно 1029.0 1024.8
12 13.02 С 10 20 км 4/3 1200 м
[Cu med, cong Ac trans]
+7.5 -8.3 32 +3 +3 холодно 1028.1 1023.9
15 13.02 С 8 20 км 3/3 1200 м
[Cu med, cong]
+6.9 -10.6 27 +3 +3 прохладно 1028.6 1024.4
18 13.02 С 10 20 км ясно +5.2 -9.5 34 -0 -0 прохладно 1030.5 1026.2 +7.8
21 13.02 С 9 20 км ясно +4.8 -9.2 35 -1 -1 прохладно 1032.0 1027.7
00 14.02 СВ 6 20 км ясно +4.4 -9.9 35 0 0 по сезону 1031.7 1027.4
03 14.02 СВ 6 20 км ясно +5.1 -13.4 25 +1 +1 по сезону 1030.4 1026.2
06 14.02 С 7 20 км ясно +5.9 -10.7 29 +2 +2 по сезону 1030.8 1026.5 +0.8
09 14.02 СВ 3
{11}
20 км ясно +9.5 -5.4 34 +8 +13 тепло 1031.3 1027.1
12 14.02 СВ 11
{16}
20 км 5/0
[Ci sp]
+11.7 -4.2 33 +8 +8 по сезону 1028.9 1024.8
15 14.02 СВ 9 20 км ясно +12.0 -4.0 32 +9 +9 по сезону 1027.8 1023.7
18 14.02 С 6 20 км 3/0
[Ci sp]
+9.3 -3.8 39 +6 +6 по сезону 1028.5 1024.3 +12.8
21 14.02 С 7 20 км 3/0 2000 м
[Ac trans]
+9.0 -3.7 41 +6 +6 по сезону 1027.8 1023.7
00 15.02 С 3 20 км 5/0 2000 м
[Ac trans]
+9.4 -2.7 43 +8 +8 тепло 1027.3 1023.2
03 15.02 С 4 20 км 6/0
[Ac trans]
+8.5 -2.5 46 +6 +6 тепло 1026.5 1022.3
06 15.02 Ю 2 20 км 3/3 1500 м
[Sc]
+2.5 -1.1 77 -1 -0 по сезону 1027.1 1022.8 +2.3
09 15.02 С 7 20 км 1/1 1500 м
[Sc]
+11.0 -4.0 35 +8 +10 тепло 1026.6 1022.4
12 15.02 С 10 20 км 3/1 1500 м
[Sc Ac trans]
+12.0 -5.8 28 +9 +9 по сезону 1026.0 1021.9
15 15.02 С 9 20 км 3/3 1500 м
[Sc]
+10.9 -5.3 32 +8 +8 по сезону 1026.4 1022.2
18 15.02 С 6 20 км ясно +9.0 -5.1 36 +6 +6 по сезону 1027.4 1023.2 +12.4
21 15.02 С 5 20 км ясно +8.5 -4.3 40 +6 +6 по сезону 1028.0 1023.8
00 16.02 СВ 6 20 км ясно +8.4 -4.9 39 +5 +5 по сезону 1028.6 1024.4
03 16.02 В 1 20 км ясно +5.6 -4.4 49 +5 +5 по сезону 1028.7 1024.4
06 16.02 С 3 20 км ясно +6.9 -5.3 41 +5 +5 тепло 1029.6 1025.3 +4.3
09 16.02 С 6 20 км ясно +10.7 -5.7 31 +8 +10 тепло 1030.3 1026.1
12 16.02 Ю 3 20 км ясно +12.8 -4.1 31 +12 +17 тепло 1029.0 1024.8
15 16.02 ЮВ 2 20 км ясно +13.3 -4.6 28 +13 +14 тепло 1027.3 1023.2
18 16.02 С 1 20 км ясно +6.6 -1.7 55 +6 +6 по сезону 1028.2 1024.0 +13.7
21 16.02 СЗ 1 20 км ясно +4.3 -2.6 61 +3 +3 по сезону 1028.6 1024.4
00 17.02 СВ 1 20 км ясно +1.6 -2.6 74 0 0 по сезону 1028.5 1024.2
03 17.02 штиль 0 20 км ясно -0.9 -3.8 81 -2 -2 прохладно 1027.9 1023.5
06 17.02 С 2 20 км ясно +0.8 -3.0 76 -3 -2 прохладно 1028.4 1024.1 -1.2
09 17.02 штиль 0 20 км ясно +10.0 -4.1 37 +10 +18 тепло 1028.2 1024.0
12 17.02 Ю 2 20 км ясно +13.8 -2.5 32 +14 +20 тепло 1026.3 1022.2
15 17.02 Ю 1 20 км ясно +15.5 -5.5 23 +16 +17 тепло 1024.9 1020.8
18 17.02 штиль 0 20 км ясно +7.8 -1.7 51 +8 +8 тепло 1025.5 1021.3 +16.0
21 17.02 штиль 0 20 км ясно +3.9 +0.4 78 +3 +3 по сезону 1026.4 1022.1
00 18.02 С 1 20 км ясно +2.8 -1.6 73 +1 +1 по сезону 1026.1 1021.8
03 18.02 С 1 20 км ясно +1.7 -2.7 73 0 0 по сезону 1025.5 1021.2
06 18.02 штиль 0 20 км ясно +1.0 -1.5 83 -0 0 по сезону 1025.7 1021.4 +0.1
09 18.02 штиль 0 20 км ясно +10.5 +0.4 50 +10 +18 тепло 1025.7 1021.6
12 18.02 Ю 1 20 км ясно +15.2 -1.0 33 +16 +24 тепло 1023.8 1019.7
15 18.02 ЮВ 2 20 км ясно +15.7 -2.0 30 +16 +17 тепло 1022.5 1018.5
18 18.02 штиль 0 20 км ясно +9.2 -0.1 52 +9 +9 тепло 1023.3 1019.1 +16.5
21 18.02 СВ 2 6000 м дым ясно +5.7 +0.2 68 +4 +4 по сезону 1024.2 1020.0
00 19.02 СВ 2 10 км ясно +4.8 -1.1 66 +3 +3 по сезону 1024.1 1019.8
03 19.02 штиль 0 10 км ясно +2.0 -0.3 85 +1 +1 по сезону 1023.2 1018.9
06 19.02 СВ 1 10 км ясно +1.0 -1.3 85 -1 -1 по сезону 1024.0 1019.7 +0.9

 

Местоположение метеостанции Подгорица (Черногория): широта 42.37 долгота 19.25 высота над уровнем моря 33 м.

В архиве по умолчанию представлена погода в Подгорице за последнюю неделю. Архивные данные за месяц целиком и за предыдущие месяцы, начиная с января 2011 года, Вы можете получить, выбрав интересующий диапазон дат из раскрывающегося списка и нажав кнопку "Ввод!".


*Определитесь, кто Вы:
робот инопланетянин человек

Внимание! Время в таблицах - всемирное. Для получения местного времени необходимо прибавить поправку, которая равна 1 ч.

Смотрите также архив погоды в соседних городах и на ближайших метеорологических станциях:

Погода в Подгорица-Граде (Черногория) (7 км)
Погода в Баре (Черногория) (32 км)
Погода в Шкодре (Албания) (38 км)
Погода в Тивате (Черногория) (43 км)
Погода в Никшиче (Черногория) (51 км)
Погода в Дубровник аэропорту (Хорватия) (83 км)
Погода в Дубровнике (Хорватия) (101 км)
Погода в Плевле (Черногория) (109 км)
Погода в Тиране Лапрака (Албания) (117 км)
Погода в Женике (Сербия) (118 км)

Пояснения к столбцам:

Ветер - указаны скорость ветра в м/с - средняя за 10 мин, порывы в срок и между сроками (в фигурных скобках) и направление, откуда дует ветер: С - северный, СВ - северо-восточный, В - восточный, ЮВ - юго-восточный, Ю - южный, ЮЗ - юго-западный, З - западный, СЗ - северо-западный.
Видимость - горизонтальная дальность видимости в метрах или километрах. При видимости от 1 до 10 км при отсутствии осадков обычно наблюдается дымка, при ухудшении видимости до 1 км и менее - туман. В сухую погоду видимость может ухудшаться дымом, пылью или мглою.
Явления - указаны атмосферные явления, наблюдавшиеся в срок или в последний час перед сроком; фигурными скобками обозначены явления, наблюдавшиеся между сроками (за 1-3 часа до срока); квадратными скобками обозначены град или гололедные отложения с указанием их диаметра в мм.
Облачность - указаны через наклонную черту общая и нижняя облачность в баллах и высота нижней границы облаков в метрах; квадратными скобками обозначены формы облаков: Ci - перистые, Cs - перисто-слоистые, Cc - перисто-кучевые, Ac - высококучевые, As - высокослоистые, Sc - слоисто-кучевые, Ns - слоисто-дождевые, Cu - кучевые, Cb - кучево-дождевые. Подробнее классификацию облаков см. в Атласе облаков (PDF).
T - Температура воздуха - температура, измеренная на высоте 2 м над землей.
Td - Температура точки росы - температура, при понижении до которой содержащийся в воздухе водяной пар достигнет насыщения.
f - Относительная влажность воздуха - влажноcть воздуха, измеренная на высоте 2 м над землей.
Te - Эффективная температура - температура, которую ощущает одетый по сезону человек в тени. Характеристика душности погоды. При расчете учитывается влияние влажности воздуха и скорости ветра на теплоощущения человека.
Tes - Эффективная температура на солнце - температура, которую ощущает человек, с поправкой на солнечный нагрев. Характеристика знойности погоды. Зависит от высоты солнца над горизонтом, облачности и скорости ветра. Ночью, в пасмурную погоду, а также при ветре 12 м/с и более поправка равна нулю.
P - Атмосферное давление - приведенное к уровню моря атмосферное давление.
Po - Атмосферное давление - измеренное на уровне метеостанции атмосферное давление.
Tmin - Минимальная температура - минимум температуры воздуха на высоте 2 м над землей.
Tmax - Максимальная температура - максимум температуры воздуха на высоте 2 м над землей.
R - Количество осадков - Количество выпавших осадков за период времени, мм. При наведении курсора мыши на число - период времени, за который выпало указанное количество осадков.
R24 - Количество осадков - Количество выпавших осадков за 24 часа, мм.
S - Снежный покров - Высота снежного покрова, см. При наведении курсора мыши на число - состояние снежного покрова и степень покрытия местности в баллах.